When you browse on this site, cookies collect data to enhance your experience and personalize the content and advertising you see.
Visit our Privacy Policy to learn more. By continuing to use the site, you agree to this use of cookies and data.
  • In France
  • List of Countries
  • For 7 days
  • Water Temperature
  • Satellite Maps
  • Weather Map
  • Weather Widgets
  • user-avatar
    Login

    Hourly Weather Letchworth

    Today, 19 June, Wednesday

    Time Temperature Precipitation Wind Pressure Humidity
    00:00 +13°C° 0.1 mm 1 mps 748 mmHg 97%
    01:00 +13°C° 0 mm 2 mps 748 mmHg 97%
    02:00 +13°C° 0 mm 2 mps 747 mmHg 97%
    03:00 +13°C° 0 mm 2 mps 747 mmHg 97%
    04:00 +13°C° 0.1 mm 2 mps 746 mmHg 97%
    05:00 +14°C° 0.1 mm 2 mps 746 mmHg 97%
    06:00 +13°C° 0.1 mm 3 mps 746 mmHg 96%
    07:00 +14°C° 0.1 mm 3 mps 746 mmHg 95%
    08:00 +16°C° 0.1 mm 3 mps 746 mmHg 94%
    09:00 +17°C° 0.1 mm 3 mps 746 mmHg 93%
    10:00 +17°C° 0.1 mm 3 mps 747 mmHg 93%
    11:00 +17°C° 0.1 mm 3 mps 747 mmHg 92%
    12:00 +17°C° 0.1 mm 2 mps 747 mmHg 91%
    13:00 +18°C° 0.3 mm 2 mps 747 mmHg 89%
    14:00 +18°C° 0.3 mm 2 mps 747 mmHg 87%
    15:00 +18°C° 0.3 mm 2 mps 746 mmHg 85%
    16:00 +18°C° 0.5 mm 2 mps 747 mmHg 86%
    17:00 +18°C° 0.5 mm 3 mps 747 mmHg 87%
    18:00 +18°C° 0.5 mm 3 mps 747 mmHg 88%
    19:00 +17°C° 0.1 mm 3 mps 747 mmHg 90%
    20:00 +16°C° 0.1 mm 3 mps 748 mmHg 92%
    21:00 +15°C° 0.1 mm 2 mps 748 mmHg 93%
    22:00 +13°C° 0 mm 3 mps 748 mmHg 94%
    23:00 +12°C° 0 mm 3 mps 748 mmHg 94%

    Tomorrow, 20 June, Thursday

    Time Temperature Precipitation Wind Pressure Humidity
    00:00 +11°C° 0 mm 3 mps 748 mmHg 95%
    01:00 +10°C° 0 mm 3 mps 748 mmHg 95%
    02:00 +9°C° 0 mm 3 mps 748 mmHg 95%
    03:00 +8°C° 0 mm 3 mps 748 mmHg 95%
    04:00 +9°C° 0 mm 3 mps 749 mmHg 94%
    05:00 +9°C° 0 mm 3 mps 749 mmHg 93%
    06:00 +10°C° 0 mm 4 mps 749 mmHg 92%
    07:00 +12°C° 0 mm 4 mps 750 mmHg 88%
    08:00 +13°C° 0 mm 4 mps 750 mmHg 84%
    09:00 +15°C° 0 mm 4 mps 750 mmHg 81%
    10:00 +15°C° 0.2 mm 4 mps 750 mmHg 77%
    11:00 +16°C° 0.2 mm 5 mps 750 mmHg 74%
    12:00 +16°C° 0.2 mm 5 mps 751 mmHg 71%
    13:00 +16°C° 0.3 mm 5 mps 751 mmHg 72%
    14:00 +16°C° 0.3 mm 5 mps 751 mmHg 73%
    15:00 +16°C° 0.3 mm 5 mps 751 mmHg 74%
    16:00 +16°C° 0.1 mm 5 mps 751 mmHg 77%
    17:00 +15°C° 0.1 mm 4 mps 751 mmHg 79%
    18:00 +15°C° 0.1 mm 4 mps 751 mmHg 82%
    19:00 +13°C° 0 mm 3 mps 752 mmHg 84%
    20:00 +12°C° 0 mm 3 mps 752 mmHg 87%
    21:00 +10°C° 0 mm 3 mps 752 mmHg 90%
    22:00 +10°C° 0 mm 3 mps 752 mmHg 91%
    23:00 +9°C° 0 mm 3 mps 753 mmHg 92%

    Day after tomorrow, 21 June, Friday

    Time Temperature Precipitation Wind Pressure Humidity
    00:00 +8°C° 0 mm 3 mps 753 mmHg 93%
    01:00 +8°C° 0 mm 3 mps 753 mmHg 93%
    02:00 +7°C° 0 mm 3 mps 753 mmHg 94%
    03:00 +7°C° 0 mm 3 mps 753 mmHg 95%
    04:00 +7°C° 0 mm 3 mps 753 mmHg 93%
    05:00 +8°C° 0 mm 3 mps 754 mmHg 90%
    06:00 +8°C° 0 mm 4 mps 754 mmHg 88%
    07:00 +11°C° 0 mm 4 mps 754 mmHg 83%
    08:00 +12°C° 0 mm 4 mps 755 mmHg 78%
    09:00 +14°C° 0 mm 4 mps 755 mmHg 72%
    10:00 +14°C° 0 mm 4 mps 755 mmHg 70%
    11:00 +15°C° 0 mm 4 mps 755 mmHg 68%
    12:00 +17°C° 0 mm 4 mps 755 mmHg 67%
    13:00 +17°C° 0 mm 4 mps 755 mmHg 67%
    14:00 +17°C° 0 mm 4 mps 756 mmHg 67%
    15:00 +17°C° 0 mm 3 mps 756 mmHg 68%
    16:00 +17°C° 0.1 mm 3 mps 756 mmHg 70%
    17:00 +17°C° 0.1 mm 2 mps 756 mmHg 73%
    18:00 +17°C° 0.1 mm 2 mps 756 mmHg 75%
    19:00 +15°C° 0 mm 2 mps 756 mmHg 79%
    20:00 +13°C° 0 mm 1 mps 757 mmHg 82%
    21:00 +12°C° 0 mm 1 mps 757 mmHg 86%
    22:00 +11°C° 0 mm 1 mps 757 mmHg 87%
    23:00 +10°C° 0 mm 1 mps 757 mmHg 87%

    22 June, Saturday

    Time Temperature Precipitation Wind Pressure Humidity
    00:00 +10°C° 0 mm 1 mps 757 mmHg 88%
    01:00 +9°C° 0 mm 1 mps 757 mmHg 90%
    02:00 +8°C° 0 mm 0 mps 757 mmHg 90%
    03:00 +8°C° 0 mm 0 mps 757 mmHg 90%
    04:00 +9°C° 0 mm 0 mps 757 mmHg 89%
    05:00 +10°C° 0 mm 0 mps 757 mmHg 87%
    06:00 +12°C° 0 mm 1 mps 757 mmHg 86%
    07:00 +13°C° 0 mm 1 mps 757 mmHg 80%
    08:00 +15°C° 0 mm 1 mps 757 mmHg 75%
    09:00 +18°C° 0 mm 1 mps 757 mmHg 70%
    10:00 +18°C° 0.1 mm 1 mps 757 mmHg 68%
    11:00 +19°C° 0.1 mm 1 mps 757 mmHg 66%
    12:00 +19°C° 0.1 mm 1 mps 758 mmHg 64%
    13:00 +19°C° 0.1 mm 1 mps 757 mmHg 64%
    14:00 +19°C° 0.1 mm 1 mps 757 mmHg 64%
    15:00 +20°C° 0.1 mm 1 mps 757 mmHg 64%
    16:00 +19°C° 0.1 mm 1 mps 757 mmHg 68%
    17:00 +19°C° 0.1 mm 1 mps 757 mmHg 71%
    18:00 +19°C° 0.1 mm 1 mps 757 mmHg 75%
    19:00 +16°C° 0 mm 2 mps 757 mmHg 79%
    20:00 +15°C° 0 mm 2 mps 757 mmHg 84%
    21:00 +12°C° 0 mm 3 mps 757 mmHg 88%
    22:00 +12°C° 0 mm 2 mps 757 mmHg 89%
    23:00 +12°C° 0 mm 2 mps 757 mmHg 91%

    23 June, Sunday

    Time Temperature Precipitation Wind Pressure Humidity
    00:00 +10°C° 0 mm 2 mps 757 mmHg 92%
    01:00 +10°C° 0 mm 2 mps 757 mmHg 92%
    02:00 +10°C° 0 mm 2 mps 757 mmHg 92%
    03:00 +9°C° 0 mm 2 mps 757 mmHg 92%
    04:00 +10°C° 0 mm 2 mps 757 mmHg 90%
    05:00 +12°C° 0 mm 2 mps 757 mmHg 88%
    06:00 +13°C° 0 mm 2 mps 757 mmHg 86%
    07:00 +13°C° 0 mm 3 mps 757 mmHg 83%
    08:00 +15°C° 0 mm 4 mps 757 mmHg 81%
    09:00 +17°C° 0 mm 4 mps 757 mmHg 78%
    10:00 +17°C° 0 mm 5 mps 757 mmHg 75%
    11:00 +19°C° 0 mm 5 mps 757 mmHg 73%
    12:00 +19°C° 0 mm 6 mps 757 mmHg 70%
    13:00 +19°C° 0 mm 6 mps 757 mmHg 71%
    14:00 +19°C° 0 mm 6 mps 757 mmHg 72%
    15:00 +19°C° 0 mm 6 mps 756 mmHg 73%
    16:00 +17°C° 0 mm 6 mps 756 mmHg 75%
    17:00 +17°C° 0 mm 5 mps 756 mmHg 78%
    18:00 +16°C° 0 mm 5 mps 756 mmHg 80%
    19:00 +15°C° 0 mm 5 mps 756 mmHg 80%
    20:00 +15°C° 0 mm 5 mps 756 mmHg 80%
    21:00 +14°C° 0 mm 5 mps 756 mmHg 79%
    22:00 +14°C° 0 mm 5 mps 756 mmHg 82%
    23:00 +14°C° 0 mm 5 mps 756 mmHg 84%

    24 June, Monday

    Time Temperature Precipitation Wind Pressure Humidity
    00:00 +14°C° 0 mm 6 mps 756 mmHg 86%
    01:00 +14°C° 0 mm 6 mps 755 mmHg 84%
    02:00 +15°C° 0 mm 6 mps 755 mmHg 83%
    03:00 +15°C° 0 mm 7 mps 755 mmHg 81%
    04:00 +15°C° 0 mm 7 mps 754 mmHg 83%
    05:00 +15°C° 0 mm 7 mps 754 mmHg 84%
    06:00 +15°C° 0 mm 7 mps 754 mmHg 86%
    07:00 +15°C° 0.1 mm 7 mps 754 mmHg 88%
    08:00 +15°C° 0.1 mm 7 mps 754 mmHg 90%
    09:00 +15°C° 0.1 mm 7 mps 754 mmHg 92%
    10:00 +16°C° 0 mm 7 mps 754 mmHg 89%
    11:00 +17°C° 0 mm 7 mps 754 mmHg 87%
    12:00 +18°C° 0 mm 7 mps 754 mmHg 84%
    13:00 +18°C° 0 mm 7 mps 754 mmHg 84%
    14:00 +19°C° 0 mm 6 mps 754 mmHg 83%
    15:00 +20°C° 0 mm 6 mps 754 mmHg 82%
    16:00 +20°C° 0.1 mm 6 mps 753 mmHg 83%
    17:00 +20°C° 0.1 mm 6 mps 753 mmHg 84%
    18:00 +20°C° 0.1 mm 6 mps 753 mmHg 85%
    19:00 +19°C° 0.2 mm 5 mps 754 mmHg 86%
    20:00 +19°C° 0.2 mm 4 mps 754 mmHg 87%
    21:00 +19°C° 0.2 mm 3 mps 754 mmHg 88%
    22:00 +19°C° 0.1 mm 3 mps 754 mmHg 88%
    23:00 +19°C° 0.1 mm 3 mps 754 mmHg 88%
    Show more